GW3595 Weather Reports


time (UTC)temp
C
wind
direction
speed
KPH
gust
KPH
rain 1hr
cm
rain 24hr
cm
rain mn
cm
humidity
%
barometer
mb
20260906023704 12 12 0.0 3.2 0.00 0.00 0.00 84 1024.3
20260906023205 12 68 0.0 4.8 0.00 0.00 0.00 83 1024.2
20260906022205 13 38 0.0 4.8 0.00 0.00 0.00 84 1024.3
20260906021719 13 44 0.0 4.8 0.00 0.00 0.00 84 1024.3
20260906021205 12 348 1.6 4.8 0.00 0.00 0.00 83 1024.3
20260906020205 13 21 1.6 4.8 0.00 0.00 0.00 83 1024.3
20260906015704 13 18 1.6 3.2 0.00 0.00 0.00 84 1024.2
20260906015205 12 294 0.0 3.2 0.00 0.00 0.00 83 1024.2
20260906014705 12 294 0.0 3.2 0.00 0.00 0.00 83 1024.2
20260906014205 12 294 1.6 3.2 0.00 0.00 0.00 82 1024.1
20260906013705 12 288 1.6 3.2 0.00 0.00 0.00 82 1024.2
20260906013205 12 298 0.0 0.0 0.00 0.00 0.00 82 1024.1
20260906012205 12 12 0.0 1.6 0.00 0.00 0.00 82 1024.0
20260906011705 13 12 0.0 1.6 0.00 0.00 0.00 82 1023.9
20260906011204 13 313 0.0 4.8 0.00 0.00 0.00 82 1023.9
20260906010704 13 313 1.6 4.8 0.00 0.00 0.00 81 1023.9
20260906010205 13 313 1.6 4.8 0.00 0.00 0.00 81 1023.9
20260906005704 13 63 1.6 3.2 0.00 0.00 0.00 81 1023.8
20260906005205 13 290 0.0 3.2 0.00 0.00 0.00 81 1023.8
20260906004205 13 290 0.0 4.8 0.00 0.00 0.00 81 1023.8
20260906003704 13 40 0.0 4.8 0.00 0.00 0.00 81 1023.9
20260906003205 13 43 0.0 3.2 0.00 0.00 0.00 80 1023.8
20260906002730 13 299 0.0 3.2 0.00 0.00 0.00 80 1023.8
20260906002205 13 296 0.0 3.2 0.00 0.00 0.00 80 1023.8
20260906001704 13 296 0.0 0.0 0.00 0.00 0.00 80 1023.8
20260906001205 13 346 0.0 0.0 0.00 0.00 0.00 80 1023.7
20260906000705 13 347 0.0 3.2 0.00 0.00 0.00 80 1023.7
20260906000205 13 344 0.0 3.2 0.00 0.00 0.00 80 1023.7
20260905235705 14 346 0.0 1.6 0.00 0.00 0.00 79 1023.7
20260905235205 14 248 0.0 1.6 0.00 0.00 0.00 79 1023.7
20260905234705 14 248 0.0 3.2 0.00 0.00 0.00 79 1023.6
20260905234205 14 249 0.0 3.2 0.00 0.00 0.00 79 1023.5
20260905233705 14 248 0.0 3.2 0.00 0.00 0.00 78 1023.5
20260905233204 14 289 0.0 1.6 0.00 0.00 0.00 78 1023.4
20260905232705 14 269 0.0 1.6 0.00 0.00 0.00 79 1023.4
20260905232204 14 269 0.0 1.6 0.00 0.00 0.00 77 1023.4
20260905231704 14 269 0.0 4.8 0.00 0.00 0.00 77 1023.3
20260905231204 15 269 1.6 8.0 0.00 0.00 0.00 76 1023.3
20260905230704 15 269 3.2 8.0 0.00 0.00 0.00 75 1023.2
20260905230205 15 281 1.6 8.0 0.00 0.00 0.00 73 1023.2
20260905225205 15 28 1.6 6.4 0.00 0.00 0.00 73 1023.1
20260905224704 15 45 3.2 6.4 0.00 0.00 0.00 73 1023.1
20260905224205 15 26 3.2 6.4 0.00 0.00 0.00 74 1023.1
20260905223704 15 38 1.6 6.4 0.00 0.00 0.00 75 1023.1
20260905222704 15 53 1.6 6.4 0.00 0.00 0.00 75 1023.2
20260905222205 15 44 0.0 1.6 0.00 0.00 0.00 76 1023.1
20260905221705 15 15 0.0 4.8 0.00 0.00 0.00 74 1023.0
20260905220704 15 15 1.6 4.8 0.00 0.00 0.00 72 1023.0
20260905215704 15 61 0.0 3.2 0.00 0.00 0.00 75 1023.1
20260905214704 15 77 1.6 3.2 0.00 0.00 0.00 75 1023.1
20260905214205 15 32 0.0 6.4 0.00 0.00 0.00 73 1022.8
20260905213705 16 335 1.6 6.4 0.00 0.00 0.00 73 1023.0
20260905213204 15 319 1.6 6.4 0.00 0.00 0.00 75 1022.7
20260905212205 15 62 0.0 0.0 0.00 0.00 0.00 77 1022.7
20260905211705 15 76 0.0 0.0 0.00 0.00 0.00 76 1022.7
20260905211205 15 76 0.0 3.2 0.00 0.00 0.00 76 1022.6
20260905210704 16 39 0.0 4.8 0.00 0.00 0.00 76 1022.5
20260905210204 16 39 1.6 4.8 0.00 0.00 0.00 75 1022.5
20260905205704 16 34 1.6 3.2 0.00 0.00 0.00 77 1022.5
20260905205204 15 36 0.0 3.2 0.00 0.00 0.00 79 1022.5
20260905204704 16 36 0.0 3.2 0.00 0.00 0.00 78 1022.5
20260905203704 16 52 0.0 3.2 0.00 0.00 0.00 79 1022.4
20260905203204 16 26 0.0 3.2 0.00 0.00 0.00 78 1022.3
20260905202704 16 26 1.6 3.2 0.00 0.00 0.00 78 1022.3
20260905202205 17 37 1.6 3.2 0.00 0.00 0.00 76 1022.3
20260905201704 17 336 0.0 3.2 0.00 0.00 0.00 75 1022.1
20260905201205 17 336 0.0 3.2 0.00 0.00 0.00 77 1022.2
20260905200704 17 15 1.6 3.2 0.00 0.00 0.00 77 1022.1
20260905200205 17 11 0.0 3.2 0.00 0.00 0.00 78 1022.1
20260905195704 17 320 0.0 3.2 0.00 0.00 0.00 78 1022.0
20260905195205 17 320 0.0 3.2 0.00 0.00 0.00 79 1022.1
20260905194704 17 34 0.0 3.2 0.00 0.00 0.00 80 1022.0
20260905194205 17 34 0.0 3.2 0.00 0.00 0.00 80 1022.0
20260905192705 18 84 1.6 4.8 0.00 0.00 0.00 79 1021.7
20260905192205 18 301 1.6 4.8 0.00 0.00 0.00 80 1021.7
20260905191720 18 36 1.6 4.8 0.00 0.00 0.00 82 1021.6
20260905191204 18 68 1.6 4.8 0.00 0.00 0.00 83 1021.6
20260905190705 18 30 0.0 4.8 0.00 0.00 0.00 83 1021.6
20260905190204 18 40 1.6 4.8 0.00 0.00 0.00 82 1021.5
20260905185705 18 36 1.6 4.8 0.00 0.00 0.00 81 1021.5
20260905184705 19 279 1.6 3.2 0.00 0.00 0.00 79 1021.4
20260905184204 19 229 1.6 3.2 0.00 0.00 0.00 79 1021.2
20260905183205 19 291 1.6 3.2 0.00 0.00 0.00 82 1021.0
20260905182704 19 291 1.6 3.2 0.00 0.00 0.00 81 1020.8
20260905181704 20 51 0.0 4.8 0.00 0.00 0.00 80 1020.6
20260905181205 20 38 1.6 4.8 0.00 0.00 0.00 80 1020.5
20260905180704 20 38 1.6 4.8 0.00 0.00 0.00 79 1020.5
20260905180205 20 300 1.6 4.8 0.00 0.00 0.00 79 1020.5
20260905175704 20 322 0.0 1.6 0.00 0.00 0.00 79 1020.5
20260905175205 20 347 0.0 3.2 0.00 0.00 0.00 78 1020.2
20260905174704 21 355 0.0 3.2 0.00 0.00 0.00 77 1020.4
20260905174205 21 66 1.6 4.8 0.00 0.00 0.00 76 1020.2
20260905173704 21 355 1.6 4.8 0.00 0.00 0.00 76 1020.0
20260905173205 21 318 1.6 6.4 0.00 0.00 0.00 75 1020.0
20260905172705 21 42 3.2 6.4 0.00 0.00 0.00 74 1019.9
20260905172220 22 284 3.2 6.4 0.00 0.00 0.00 74 1019.9
20260905171705 22 210 3.2 6.4 0.00 0.00 0.00 73 1019.8
20260905171204 22 217 1.6 4.8 0.00 0.00 0.00 73 1019.9
20260905170705 22 262 1.6 4.8 0.00 0.00 0.00 73 1019.8
20260905170204 22 302 1.6 6.4 0.00 0.00 0.00 72 1019.7
20260905165705 22 233 1.6 6.4 0.00 0.00 0.00 72 1019.6
20260905165204 22 265 3.2 6.4 0.00 0.00 0.00 72 1019.6
20260905164705 22 219 3.2 6.4 0.00 0.00 0.00 71 1019.6
20260905164204 22 246 3.2 6.4 0.00 0.00 0.00 71 1019.5
20260905163204 22 146 1.6 9.7 0.00 0.00 0.00 70 1019.6
20260905162704 22 200 3.2 9.7 0.00 0.00 0.00 70 1019.4
20260905162205 22 249 4.8 9.7 0.00 0.00 0.00 70 1019.4
20260905161705 22 174 4.8 8.0 0.00 0.00 0.00 70 1019.3
20260905161204 22 199 3.2 8.0 0.00 0.00 0.00 70 1019.3
20260905160705 23 181 3.2 8.0 0.00 0.00 0.00 70 1019.3
20260905155704 23 198 3.2 8.0 0.00 0.00 0.00 70 1019.1
20260905155204 23 188 4.8 8.0 0.00 0.00 0.00 70 1019.2
20260905154705 23 199 4.8 9.7 0.00 0.00 0.00 69 1019.2
20260905154204 23 200 4.8 9.7 0.00 0.00 0.00 69 1019.2
20260905153205 23 259 4.8 9.7 0.00 0.00 0.00 66 1019.1
20260905152704 24 188 3.2 9.7 0.00 0.00 0.00 65 1019.1
20260905152205 23 217 4.8 11.3 0.00 0.00 0.00 68 1019.1
20260905151704 23 188 4.8 12.9 0.00 0.00 0.00 67 1019.2
20260905150704 23 203 6.4 11.3 0.00 0.00 0.00 68 1019.3
20260905150205 23 135 4.8 16.1 0.00 0.00 0.00 68 1019.3
20260905145704 23 190 6.4 16.1 0.00 0.00 0.00 68 1019.3
20260905144704 23 216 6.4 16.1 0.00 0.00 0.00 67 1019.4
20260905144205 23 296 8.0 16.1 0.00 0.00 0.00 68 1019.4
20260905143704 23 202 8.0 14.5 0.00 0.00 0.00 67 1019.3
20260905143205 23 262 8.0 17.7 0.00 0.00 0.00 68 1019.3
20260905142704 23 173 8.0 17.7 0.00 0.00 0.00 68 1019.3
20260905141704 23 189 9.7 20.9 0.00 0.00 0.00 69 1019.4
20260905141205 23 239 9.7 17.7 0.00 0.00 0.00 68 1019.5
20260905140705 23 223 8.0 17.7 0.00 0.00 0.00 69 1019.5
20260905140205 23 191 9.7 17.7 0.00 0.00 0.00 67 1019.4
20260905135705 23 230 11.3 17.7 0.00 0.00 0.00 68 1019.4
20260905135204 23 216 9.7 17.7 0.00 0.00 0.00 68 1019.4
20260905134704 23 202 9.7 17.7 0.00 0.00 0.00 69 1019.4
20260905134204 23 213 11.3 14.5 0.00 0.00 0.00 67 1019.5
20260905133704 23 169 8.0 14.5 0.00 0.00 0.00 66 1019.4
20260905133204 24 203 6.4 16.1 0.00 0.00 0.00 65 1019.4
20260905132704 23 162 8.0 16.1 0.00 0.00 0.00 66 1019.4
20260905132206 24 150 8.0 16.1 0.00 0.00 0.00 65 1019.3
20260905131704 24 205 4.8 12.9 0.00 0.00 0.00 65 1019.5
20260905130229 23 191 6.4 12.9 0.00 0.00 0.00 68 1019.5
20260905125704 23 211 6.4 14.5 0.00 0.00 0.00 66 1019.5
20260905124705 23 120 4.8 14.5 0.00 0.00 0.00 68 1019.6
20260905124205 22 172 4.8 14.5 0.00 0.00 0.00 68 1019.6
20260905123704 22 167 6.4 14.5 0.00 0.00 0.00 69 1019.7
20260905123205 21 219 6.4 14.5 0.00 0.00 0.00 71 1019.8
20260905122705 21 180 8.0 14.5 0.00 0.00 0.00 71 1019.8
20260905121705 21 165 8.0 14.5 0.00 0.00 0.00 72 1019.9
20260905120705 21 144 6.4 14.5 0.00 0.00 0.00 72 1020.1
20260905115704 21 182 6.4 12.9 0.00 0.00 0.00 73 1020.0
20260905114704 21 112 6.4 16.1 0.00 0.00 0.00 74 1020.0
20260905114205 22 153 6.4 16.1 0.00 0.00 0.00 70 1019.9
20260905113704 22 152 8.0 16.1 0.00 0.00 0.00 68 1019.9
20260905112205 22 193 6.4 14.5 0.00 0.00 0.00 67 1020.0
20260905111704 22 167 8.0 14.5 0.00 0.00 0.00 66 1020.0
20260905111205 23 237 8.0 14.5 0.00 0.00 0.00 65 1019.9
20260905110704 23 228 6.4 14.5 0.00 0.00 0.00 63 1019.7
20260905110205 23 187 6.4 14.5 0.00 0.00 0.00 61 1019.7
20260905105705 24 221 6.4 12.9 0.00 0.00 0.00 61 1019.6
20260905105204 24 223 6.4 12.9 0.00 0.00 0.00 61 1019.4
20260905104704 24 211 6.4 14.5 0.00 0.00 0.00 61 1019.3
20260905104205 25 150 6.4 14.5 0.00 0.00 0.00 61 1019.2
20260905103705 25 201 6.4 16.1 0.00 0.00 0.00 60 1019.2
20260905103204 25 227 8.0 16.1 0.00 0.00 0.00 60 1019.1
20260905102705 25 220 8.0 14.5 0.00 0.00 0.00 60 1019.2
20260905102204 25 207 8.0 14.5 0.00 0.00 0.00 62 1019.3
20260905101704 25 117 6.4 14.5 0.00 0.00 0.00 59 1019.3
20260905100704 25 177 8.0 17.7 0.00 0.00 0.00 60 1019.2
20260905100205 25 242 8.0 17.7 0.00 0.00 0.00 60 1019.1
20260905095704 25 146 8.0 17.7 0.00 0.00 0.00 60 1019.4
20260905094704 25 154 8.0 14.5 0.00 0.00 0.00 61 1019.3
20260905094205 25 231 6.4 11.3 0.00 0.00 0.00 63 1019.3
20260905093704 25 208 4.8 12.9 0.00 0.00 0.00 64 1019.3
20260905093205 25 210 4.8 12.9 0.00 0.00 0.00 62 1019.2
20260905092704 25 232 6.4 12.9 0.00 0.00 0.00 63 1019.1
20260905092205 24 268 8.0 12.9 0.00 0.00 0.00 63 1019.1
20260905091705 24 226 6.4 11.3 0.00 0.00 0.00 64 1019.1
20260905091204 24 257 4.8 9.7 0.00 0.00 0.00 64 1019.0
20260905090705 25 306 3.2 9.7 0.00 0.00 0.00 62 1018.9
20260905090204 25 328 3.2 11.3 0.00 0.00 0.00 64 1018.7
20260905085204 23 276 6.4 17.7 0.00 0.00 0.00 67 1018.6
20260905084705 23 68 8.0 17.7 0.00 0.00 0.00 66 1018.5
20260905084204 23 87 6.4 11.3 0.00 0.00 0.00 68 1018.4
20260905083704 22 92 3.2 8.0 0.00 0.00 0.00 71 1018.4
20260905083205 22 67 1.6 6.4 0.00 0.00 0.00 70 1018.4
20260905082206 21 54 3.2 6.4 0.00 0.00 0.00 74 1018.2
20260905081704 21 65 1.6 3.2 0.00 0.00 0.00 75 1018.3
20260905080705 20 49 0.0 3.2 0.00 0.00 0.00 79 1018.2
20260905080223 20 49 0.0 3.2 0.00 0.00 0.00 77 1018.2
20260905075705 20 49 0.0 3.2 0.00 0.00 0.00 78 1018.1
20260905075205 20 49 0.0 4.8 0.00 0.00 0.00 77 1018.0
20260905074204 20 49 1.6 6.4 0.00 0.00 0.00 76 1017.5
20260905073204 20 337 1.6 8.0 0.00 0.00 0.00 75 1017.3
20260905072705 20 34 3.2 8.0 0.00 0.00 0.00 75 1017.2
20260905071705 20 56 4.8 9.7 0.00 0.00 0.00 74 1017.1
20260905071204 20 41 4.8 9.7 0.00 0.00 0.00 74 1017.0
20260905070205 20 48 4.8 6.4 0.00 0.00 0.00 75 1017.0
20260905065233 20 34 3.2 16.1 0.00 0.00 0.00 76 1016.8
20260905064704 20 5 6.4 16.1 0.00 0.00 0.00 76 1016.7
20260905064205 20 51 6.4 12.9 0.00 0.00 0.00 76 1016.7
20260905063205 20 61 6.4 11.3 0.00 0.00 0.00 75 1016.5
20260905062705 20 51 6.4 11.3 0.00 0.00 0.00 76 1016.5
20260905062205 20 50 6.4 11.3 0.00 0.00 0.00 76 1016.5
20260905061205 20 58 4.8 11.3 0.00 0.00 0.00 76 1016.5
20260905060719 19 53 6.4 11.3 0.00 0.00 0.00 77 1016.6
20260905060204 19 30 4.8 11.3 0.00 0.00 0.00 79 1016.6
20260905055705 18 68 1.6 1.6 0.00 0.00 0.00 80 1016.4
20260905055204 18 22 0.0 4.8 0.00 0.00 0.00 81 1016.4
20260905054704 18 5 1.6 11.3 0.00 0.00 0.00 80 1016.4
20260905054205 19 9 4.8 11.3 0.00 0.00 0.00 79 1016.2
20260905053704 19 58 6.4 11.3 0.00 0.00 0.00 79 1016.1
20260905052704 18 74 6.4 8.0 0.00 0.00 0.00 79 1016.0
20260905052205 18 41 4.8 9.7 0.00 0.00 0.00 81 1016.0
20260905051704 18 57 3.2 9.7 0.00 0.00 0.00 82 1016.0
20260905051205 17 34 1.6 3.2 0.00 0.00 0.00 84 1015.8
20260905050705 17 133 0.0 3.2 0.00 0.00 0.00 84 1015.8
20260905050205 17 11 0.0 3.2 0.00 0.00 0.00 84 1015.6
20260905045205 17 315 1.6 3.2 0.00 0.00 0.00 84 1015.6
20260905044705 17 44 1.6 3.2 0.00 0.00 0.00 84 1015.5
20260905044204 17 47 0.0 3.2 0.00 0.00 0.00 85 1015.4
20260905043204 17 0 0.0 3.2 0.00 0.00 0.00 85 1015.2
20260905042204 17 25 0.0 4.8 0.00 0.00 0.00 85 1015.2
20260905041704 17 27 1.6 4.8 0.00 0.00 0.00 85 1015.1
20260905041205 17 63 1.6 4.8 0.00 0.00 0.00 86 1015.1
20260905040705 16 51 0.0 1.6 0.00 0.00 0.00 86 1015.1
20260905035704 17 13 0.0 4.8 0.00 0.00 0.00 85 1015.0
20260905035205 17 13 1.6 4.8 0.00 0.00 0.00 85 1014.9
20260905034704 17 65 1.6 3.2 0.00 0.00 0.00 84 1014.8
20260905034205 17 34 0.0 8.0 0.00 0.00 0.00 84 1014.8
20260905033705 17 40 1.6 8.0 0.00 0.00 0.00 84 1014.8
20260905033204 17 309 4.8 8.0 0.00 0.00 0.00 83 1014.8
20260905032705 17 71 4.8 8.0 0.00 0.00 0.00 83 1014.7
20260905031704 17 59 3.2 8.0 0.00 0.00 0.00 83 1014.6
20260905031205 17 42 4.8 8.0 0.00 0.00 0.00 83 1014.5
20260905030704 17 49 3.2 8.0 0.00 0.00 0.00 84 1014.5
20260905030212 17 41 3.2 8.0 0.00 0.00 0.00 83 1014.5
20260905025705 17 57 3.2 6.4 0.00 0.00 0.00 84 1014.4
20260905025205 17 55 1.6 4.8 0.00 0.00 0.00 84 1014.5
20260905024705 17 47 1.6 4.8 0.00 0.00 0.00 84 1014.4